Weather History for Galliano, LA

Change the Weather History Date:

Sunday, January 6, 2013

  Actual Average (KAXO) Record (KAXO)
Temperature  
Mean Temperature 52 °F -  
Max Temperature 53 °F 57 °F 71 °F (2009)
Min Temperature 50 °F 54 °F 37 °F (2014)
Degree Days  
Heating Degree Days 14    
Growing Degree Days 2 (Base 50)    
Moisture  
Dew Point 49 °F    
Average Humidity 91    
Maximum Humidity 100    
Minimum Humidity 76    
Precipitation  
Precipitation 0.02 in - - ()
Sea Level Pressure  
Sea Level Pressure 30.21 in    
Wind  
Wind Speed 11 mph (North)    
Max Wind Speed 17 mph    
Max Gust Speed 23 mph    
Visibility 10 miles    
Events Rain    
Averages and records for this station are not official NWS values.
T = Trace of Precipitation, MM = Missing Value Source: NWS Daily Summary

Daily Weather History Graph

Daily Weather History Graph

Search for Another Location

Airport:

Trip Planner

Search our weather history database for the weather conditions in past years. The results will help you decide how hot, cold, wet, or windy it might be!

Date:

Astronomy

Jan. 06, 2013 Rise Set
Actual Time 6:56 AM CST 5:17 PM CST
Civil Twilight 6:30 AM CST 5:43 PM CST
Nautical Twilight 6:01 AM CST 6:13 PM CST
Astronomical Twilight 5:32 AM CST 6:42 PM CST
Moon 1:21 AM CST (1/6) 12:36 PM CST (1/6)
Length of Visible Light 11h 12m
Length of Day
10h 21m
Waning Crescent, 33% of the Moon is Illuminated
Jan 6
Waning Crescent
Jan 11
New
Jan 18
First Quarter
Jan 26
Full
Feb 3
Last Quarter

Hourly Weather History & Observations

Time (CST) Temp. Dew Point Humidity Pressure Visibility Wind Dir Wind Speed Gust Speed Precip Events Conditions
12:15 AM 51.8 °F 44.6 °F 76% 30.20 in 10.0 mi NNE 9.2 mph - N/A   Unknown
12:35 AM 51.8 °F 46.4 °F 82% 30.20 in 10.0 mi NNE 8.1 mph - N/A   Unknown
12:55 AM 51.8 °F 46.4 °F 82% 30.20 in 10.0 mi NNE 9.2 mph - N/A   Unknown
1:15 AM 51.8 °F 46.4 °F 82% 30.20 in 10.0 mi NNE 9.2 mph - N/A   Unknown
1:35 AM 53.6 °F 46.4 °F 77% 30.18 in 10.0 mi NNE 9.2 mph - N/A   Unknown
1:55 AM 53.6 °F 46.4 °F 77% 30.17 in 10.0 mi NNE 11.5 mph - N/A   Unknown
2:15 AM 53.6 °F 46.4 °F 77% 30.17 in 10.0 mi NNE 9.2 mph 16.1 mph N/A   Unknown
2:35 AM 53.6 °F 46.4 °F 77% 30.16 in 10.0 mi NNE 9.2 mph - N/A   Unknown
2:55 AM 53.6 °F 46.4 °F 77% 30.15 in 10.0 mi NNE 10.4 mph - N/A   Unknown
3:15 AM 53.6 °F 46.4 °F 77% 30.15 in 10.0 mi NNE 9.2 mph - N/A   Unknown
3:35 AM 53.6 °F 48.2 °F 82% 30.14 in 10.0 mi NNE 9.2 mph - N/A   Unknown
3:55 AM 53.6 °F 48.2 °F 82% 30.14 in 10.0 mi NNE 9.2 mph - N/A   Unknown
4:15 AM 53.6 °F 48.2 °F 82% 30.13 in 10.0 mi NNE 9.2 mph - N/A   Unknown
4:35 AM 53.6 °F 50.0 °F 88% 30.14 in 10.0 mi NNE 9.2 mph - N/A   Unknown
4:55 AM 53.6 °F 50.0 °F 88% 30.14 in 10.0 mi North 9.2 mph - N/A   Unknown
5:15 AM 53.6 °F 50.0 °F 88% 30.14 in 10.0 mi NNE 6.9 mph - N/A   Unknown
5:35 AM 53.6 °F 50.0 °F 88% 30.14 in 10.0 mi North 8.1 mph - N/A   Unknown
5:55 AM 53.6 °F 48.2 °F 82% 30.15 in 10.0 mi NNE 10.4 mph - N/A   Unknown
6:15 AM 53.6 °F 50.0 °F 88% 30.16 in 10.0 mi North 9.2 mph - N/A   Unknown
6:35 AM 53.6 °F 50.0 °F 88% 30.17 in 10.0 mi North 11.5 mph - N/A   Unknown
6:55 AM 51.8 °F 48.2 °F 88% 30.18 in 10.0 mi NNW 12.7 mph - N/A   Unknown
7:15 AM 51.8 °F 48.2 °F 88% 30.20 in 10.0 mi NNW 15.0 mph - N/A   Unknown
7:35 AM 50.0 °F 46.4 °F 87% 30.20 in 10.0 mi NNW 16.1 mph 23.0 mph N/A   Unknown
7:55 AM 50.0 °F 46.4 °F 87% 30.21 in 10.0 mi North 16.1 mph 21.9 mph N/A   Unknown
8:15 AM 50.0 °F 48.2 °F 94% 30.21 in 7.0 mi North 17.3 mph 21.9 mph N/A   Light Drizzle
8:35 AM 50.0 °F 48.2 °F 94% 30.21 in 10.0 mi North 15.0 mph 20.7 mph N/A   Unknown
8:55 AM 50.0 °F 50.0 °F 100% 30.22 in 10.0 mi North 12.7 mph 20.7 mph N/A   Unknown
9:15 AM 50.0 °F 50.0 °F 100% 30.23 in 10.0 mi North 13.8 mph - N/A   Unknown
9:35 AM 50.0 °F 48.2 °F 94% 30.23 in 10.0 mi North 13.8 mph 20.7 mph N/A   Unknown
9:55 AM 50.0 °F 48.2 °F 94% 30.23 in 10.0 mi North 13.8 mph - N/A   Unknown
10:15 AM 50.0 °F 48.2 °F 94% 30.23 in 10.0 mi North 15.0 mph - N/A   Unknown
10:35 AM 50.0 °F 48.2 °F 94% 30.23 in 10.0 mi North 17.3 mph - N/A   Unknown
10:55 AM 50.0 °F 48.2 °F 94% 30.22 in 10.0 mi North 17.3 mph 21.9 mph N/A   Unknown
11:15 AM 50.0 °F 48.2 °F 94% 30.22 in 10.0 mi North 13.8 mph 20.7 mph N/A   Unknown
11:35 AM 50.0 °F 48.2 °F 94% 30.22 in 10.0 mi North 12.7 mph - N/A Rain Light Rain
11:55 AM 50.0 °F 48.2 °F 94% 30.20 in 7.0 mi North 13.8 mph - N/A Rain Light Rain
12:15 PM 50.0 °F 50.0 °F 100% 30.20 in 10.0 mi North 12.7 mph 18.4 mph 0.01 in Rain Light Rain
12:35 PM 50.0 °F 50.0 °F 100% 30.20 in 10.0 mi North 12.7 mph - 0.01 in   Light Drizzle
12:55 PM 50.0 °F 50.0 °F 100% 30.20 in 10.0 mi North 13.8 mph - 0.02 in   Light Drizzle
1:15 PM 50.0 °F 50.0 °F 100% 30.18 in 10.0 mi North 15.0 mph - N/A   Unknown
1:35 PM 50.0 °F 50.0 °F 100% 30.19 in 10.0 mi North 12.7 mph 20.7 mph N/A   Unknown
1:55 PM 50.0 °F 50.0 °F 100% 30.18 in 7.0 mi North 13.8 mph - N/A   Unknown
2:15 PM 50.0 °F 50.0 °F 100% 30.18 in 3.0 mi North 15.0 mph 18.4 mph N/A   Light Drizzle
2:35 PM 50.0 °F 50.0 °F 100% 30.19 in 4.0 mi North 15.0 mph - N/A   Light Drizzle
2:55 PM 50.0 °F 50.0 °F 100% 30.18 in 4.0 mi North 17.3 mph 23.0 mph N/A Rain Light Rain
3:15 PM 50.0 °F 50.0 °F 100% 30.19 in 4.0 mi North 16.1 mph - N/A Rain Light Rain
3:35 PM 50.0 °F 50.0 °F 100% 30.19 in 7.0 mi North 13.8 mph - N/A Rain Light Rain
3:55 PM 51.8 °F 51.8 °F 100% 30.20 in 10.0 mi North 10.4 mph - N/A   Unknown
4:15 PM 51.8 °F 51.8 °F 100% 30.20 in 10.0 mi North 11.5 mph 17.3 mph N/A   Unknown
4:35 PM 51.8 °F 51.8 °F 100% 30.21 in 10.0 mi North 11.5 mph - N/A   Light Drizzle
4:55 PM 51.8 °F 51.8 °F 100% 30.21 in 10.0 mi North 13.8 mph - N/A   Unknown
5:15 PM 51.8 °F 50.0 °F 94% 30.22 in 10.0 mi North 11.5 mph 17.3 mph N/A   Unknown
5:35 PM 51.8 °F 50.0 °F 94% 30.22 in 10.0 mi North 11.5 mph - N/A   Unknown
5:55 PM 51.8 °F 50.0 °F 94% 30.23 in 10.0 mi North 9.2 mph - N/A   Unknown
6:15 PM 51.8 °F 50.0 °F 94% 30.23 in 10.0 mi North 8.1 mph - N/A   Unknown
6:35 PM 51.8 °F 50.0 °F 94% 30.24 in 10.0 mi North 9.2 mph - N/A   Unknown
6:55 PM 51.8 °F 50.0 °F 94% 30.24 in 10.0 mi North 9.2 mph - N/A   Unknown
7:15 PM 51.8 °F 50.0 °F 94% 30.24 in 10.0 mi North 9.2 mph - N/A   Unknown
7:35 PM 50.0 °F 50.0 °F 100% 30.24 in 10.0 mi NNW 11.5 mph - N/A   Unknown
7:55 PM 50.0 °F 50.0 °F 100% 30.25 in 10.0 mi North 10.4 mph - N/A   Unknown
8:15 PM 50.0 °F 50.0 °F 100% 30.25 in 10.0 mi North 11.5 mph - N/A   Unknown
8:35 PM 51.8 °F 50.0 °F 94% 30.26 in 10.0 mi North 11.5 mph - N/A   Unknown
8:55 PM 51.8 °F 50.0 °F 94% 30.27 in 10.0 mi North 9.2 mph - N/A   Unknown
9:15 PM 51.8 °F 50.0 °F 94% 30.27 in 10.0 mi North 9.2 mph - N/A   Unknown
9:55 PM 51.8 °F 48.2 °F 88% 30.28 in 10.0 mi North 11.5 mph - N/A   Unknown
10:15 PM 50.0 °F 46.4 °F 87% 30.27 in 10.0 mi North 12.7 mph - N/A   Unknown
10:35 PM 50.0 °F 46.4 °F 87% 30.27 in 10.0 mi North 11.5 mph - N/A   Unknown
10:55 PM 50.0 °F 46.4 °F 87% 30.27 in 10.0 mi North 10.4 mph - N/A   Unknown
11:35 PM 50.0 °F 46.4 °F 87% 30.27 in 10.0 mi North 9.2 mph - N/A   Unknown
11:55 PM 50.0 °F 46.4 °F 87% 30.27 in 10.0 mi North 8.1 mph - N/A   Unknown